Location: Bottens
(46.6171°N, 6.6605°E)
Time: 19:57:08
(UTC+00:00)

Cosmos 2266 Rocket - Pass Details

Date: 20 June 2021
Orbit: 935 x 1007 km, 82.9° (Epoch: 01 August)

Event Time Altitude Azimuth Distance (km) Brightness Sun altitude
Exits shadow 02:49:06 - 193° (SSW) 3,243 6.2 -7.4°
Reaches altitude 10° 02:50:36 10° 195° (SSW) 2,674 5.8 -7.2°
Maximum altitude 02:56:42 73° 280° (W) 988 4.0 -6.5°
Drops below altitude 10° 03:02:46 10° 5° (N) 2,660 7.1 -5.7°
Sets 03:05:15 0° 8° (N) 3,606 7.9 -5.4°
